Dewpoint
57 56 55 54 54 52 50 45 44 42 40 40 39 40 39 38 38 39 41 46 47 47 46 47 48 49 48 48 48 48 49 50 51 52 53 55 58 60 60 59 60 59 60
57 56 54 48 49 45 44 44 44 42 41 41 39 40 39 37 38 40 37 45 48 49 48 47 46 45 44 45 46 46 47 47 47 47 49 51 51 53 56 59 59 60 60
54 50 48 50 47 44 43 44 42 40 40 39 39 39 38 37 36 37 38 36 47 48 48 44 42 41 40 40 41 41 41 42 45 45 45 47 48 49 51 53 54 58 59
48 49 47 46 46 44 42 42 42 42 41 40 40 38 39 37 34 34 37 34 36 42 45 43 41 40 39 37 37 38 38 38 39 42 42 43 44 44 46 48 50 53 57
45 46 46 47 44 44 42 43 44 43 42 41 39 34 37 34 34 31 30 30 34 39 37 43 41 38 37 34 34 34 35 37 39 39 40 42 42 42 42 43 46 49 52
44 43 46 43 43 43 42 44 43 44 42 40 33 30 34 34 31 33 32 30 30 31 34 33 33 31 32 29 31 30 34 35 35 39 39 40 40 40 40 40 41 43 47
41 42 43 43 42 42 43 41 41 40 39 37 32 30 30 30 28 30 27 27 27 28 31 33 29 28 27 30 28 28 29 30 36 36 36 36 36 37 39 39 39 40 43
41 40 42 41 42 41 40 41 37 37 37 36 31 30 27 26 27 27 28 27 25 27 28 25 27 25 27 26 24 25 26 30 29 30 31 32 34 36 37 38 38 39 41
38 36 36 37 38 38 38 38 36 37 35 34 33 29 28 26 26 27 23 24 25 25 26 27 23 23 23 24 22 26 28 29 27 28 29 29 32 34 35 37 38 38 40
25 23 25 30 31 34 36 39 35 38 37 33 32 32 30 28 24 21 21 20 21 20 23 25 23 23 22 22 25 26 29 33 30 27 26 27 31 33 34 36 37 38 38
26 25 27 32 33 33 33 37 40 39 38 36 33 30 27 25 23 20 19 19 20 21 21 23 22 23 23 24 24 22 29 27 26 23 23 25 29 31 33 36 36 37 38
25 27 31 33 35 36 37 40 39 38 38 36 34 30 26 22 22 22 21 21 20 20 21 21 22 23 24 21 21 23 26 26 25 23 23 25 31 30 31 37 36 36 38
25 29 29 33 35 37 38 37 38 38 38 37 35 29 27 27 24 23 22 21 20 19 19 20 22 22 19 21 21 25 25 25 28 27 25 25 28 28 30 35 38 38 39
26 26 31 32 34 37 35 37 38 39 38 37 32 31 28 27 25 23 21 19 18 19 20 20 21 20 20 21 21 26 23 25 26 28 29 25 27 28 31 37 38 37 38
25 27 29 30 33 34 36 38 38 36 33 31 29 29 25 26 25 25 22 20 21 19 19 19 18 19 21 20 21 23 22 23 26 26 26 29 29 31 34 36 37 37 38
27 28 28 29 30 33 36 35 33 31 30 31 29 28 29 28 25 24 23 22 21 19 18 18 18 20 22 21 21 22 22 21 22 24 24 27 30 30 30 33 36 37 38
27 27 27 28 28 28 28 29 29 27 30 27 28 28 29 30 25 24 23 22 20 19 18 18 18 20 20 22 22 21 21 19 20 22 25 28 29 32 33 32 34 37 37
27 27 28 28 29 28 28 29 28 26 27 30 31 27 27 25 24 23 21 21 21 19 17 16 18 19 20 20 19 19 19 18 18 20 25 31 31 34 33 32 31 38 39
26 27 28 29 28 27 29 29 27 25 25 28 27 27 26 22 19 20 19 17 17 17 19 18 16 17 18 18 18 19 20 22 21 21 22 26 34 36 34 33 34 38 39
26 28 29 29 27 26 25 25 24 27 27 26 26 24 21 19 17 16 15 16 15 17 16 15 15 14 15 17 19 20 18 19 22 23 26 29 33 36 36 33 34 35 36
27 27 27 28 28 30 28 26 26 23 23 21 21 20 18 16 15 17 15 16 18 17 15 15 15 16 16 16 16 19 21 23 22 23 30 29 30 33 33 31 34 34 35
27 25 25 26 26 30 26 24 20 20 21 21 21 19 18 17 20 18 21 20 19 18 16 16 16 17 17 19 23 23 21 21 21 24 24 25 29 31 34 33 33 34 35
26 25 26 25 24 30 27 23 18 18 20 23 21 19 17 15 18 18 18 16 15 17 18 17 16 18 23 20 18 17 16 17 18 19 18 17 23 24 27 30 32 33 34
25 26 25 24 25 28 26 22 17 18 22 23 20 19 18 17 19 18 17 16 16 15 14 15 14 15 16 17 19 19 19 19 19 19 17 16 20 22 23 25 27 32 33
24 25 25 23 24 26 24 20 17 20 24 22 21 20 18 14 20 18 17 17 16 14 15 12 11 14 18 20 21 21 21 21 19 19 19 20 21 23 23 22 23 27 33
25 25 25 24 23 26 24 21 18 21 22 22 22 19 18 15 17 17 17 17 17 17 15 13 16 18 19 20 21 27 24 22 22 21 19 22 24 26 20 20 25 27 28
Wind_Speed
6 5 5 6 7 10 14 14 13 14 14 14 13 11 9 9 10 6 5 3 3 3 5 9 11 13 14 16 18 19 19 19 19 19 20 21 20 20 13 10 11 10 9
6 5 7 8 10 13 14 14 15 13 14 13 10 11 10 13 12 10 5 3 5 5 7 10 11 11 12 13 15 18 19 20 20 19 19 20 21 22 22 18 13 12 12
10 7 7 9 12 13 12 11 11 9 7 11 14 13 13 12 15 15 12 11 8 9 9 10 9 9 10 12 14 16 18 19 20 21 21 20 20 21 23 22 21 16 15
4 3 7 10 11 7 5 2 7 11 14 12 11 14 9 14 18 21 11 12 13 2 8 10 6 7 6 9 13 16 19 20 17 22 22 21 22 21 21 23 23 22 19
8 7 9 10 10 11 9 9 11 12 13 14 15 14 11 14 15 17 17 16 13 7 7 7 6 13 7 15 16 19 21 19 22 23 18 23 25 24 22 23 24 23 22
11 11 6 4 3 7 11 12 10 9 9 10 15 17 8 8 16 16 13 18 16 17 11 9 11 11 16 19 19 19 21 22 23 19 21 24 28 27 26 24 24 24 22
9 5 9 10 11 11 11 11 11 10 11 10 11 13 12 10 14 10 14 15 15 16 13 9 11 9 11 15 18 21 22 21 18 20 22 25 26 29 28 26 24 25 24
9 9 8 8 9 10 10 9 11 12 7 9 11 14 11 10 8 16 14 13 13 14 13 15 9 8 8 7 11 18 19 15 18 20 22 25 27 28 30 29 26 25 26
7 8 9 9 9 7 8 10 10 12 7 10 9 10 12 10 14 9 15 13 14 13 13 11 12 8 6 6 11 7 11 9 16 20 23 25 27 28 30 31 30 26 26
12 11 11 12 12 13 11 10 9 6 7 7 10 10 13 13 14 18 3 11 14 16 15 11 11 11 10 10 10 11 6 6 10 17 24 27 27 28 30 31 30 28 25
8 9 11 13 12 11 12 11 10 9 12 11 11 12 11 11 12 14 17 12 13 14 15 9 12 13 12 11 12 11 11 11 15 21 26 27 27 28 31 31 28 27 27
7 8 11 10 10 12 10 8 13 12 9 7 7 8 12 10 10 11 14 14 15 13 12 12 11 11 12 14 16 19 13 18 18 22 23 27 23 27 30 31 27 26 27
6 6 8 8 10 10 11 9 7 6 6 5 7 10 6 10 9 10 12 16 16 16 13 12 13 11 13 13 15 13 17 16 17 21 25 27 25 27 29 29 26 24 23
5 7 6 10 10 7 4 6 7 8 7 9 7 12 2 8 8 9 12 14 17 16 14 16 13 14 13 12 13 16 14 17 20 22 23 27 28 24 25 24 22 22 22
6 6 7 10 11 1 2 2 9 10 6 5 3 8 4 6 7 8 11 13 11 19 20 16 17 13 11 11 13 16 15 19 24 25 26 27 25 19 19 21 19 19 20
5 7 8 8 11 9 8 8 8 7 8 5 8 6 10 11 13 10 10 14 15 17 22 15 15 13 15 16 16 18 19 26 24 26 29 28 15 12 13 18 18 16 18
6 8 8 8 9 11 11 9 9 11 7 6 8 8 9 9 8 10 12 12 14 15 18 17 17 13 17 17 18 17 18 20 20 21 24 16 15 16 18 19 18 16 17
5 7 9 9 11 10 7 10 11 9 10 13 14 10 12 12 15 13 12 14 14 16 18 21 17 17 16 17 17 18 17 17 19 20 25 21 20 18 20 23 18 16 13
5 7 9 12 8 7 6 11 10 4 7 6 4 7 10 11 11 10 13 14 15 15 16 17 20 15 14 14 17 17 17 18 16 22 20 14 13 24 24 22 11 10 9
5 9 11 12 6 6 8 10 7 11 9 7 6 7 9 7 7 8 9 10 12 14 14 15 17 17 15 15 15 17 17 15 17 18 16 16 15 19 29 24 3 6 9
7 11 12 11 5 3 6 5 6 7 10 11 9 9 8 5 3 2 5 9 9 12 13 15 17 17 17 14 16 15 17 17 19 17 10 14 10 15 15 16 6 6 9
12 8 10 10 7 5 10 7 4 3 9 11 9 10 8 10 6 8 8 6 11 15 17 18 19 18 17 15 13 14 14 16 15 9 17 16 11 14 14 13 5 3 6
10 9 10 8 6 11 12 10 5 0 8 10 9 8 8 8 9 9 11 14 16 19 20 18 17 15 16 14 13 17 17 17 18 18 17 18 11 15 16 3 5 3 3
10 10 9 8 4 11 14 10 6 2 9 8 6 8 7 4 7 6 8 12 14 15 16 13 14 15 15 14 16 16 18 19 17 15 14 18 12 16 18 8 6 6 4
11 10 8 5 5 12 12 9 4 2 7 7 7 8 6 4 5 6 9 12 14 15 15 21 24 23 21 22 21 16 17 14 16 15 14 14 12 17 15 16 10 9 7
11 10 4 6 8 14 13 10 5 1 6 7 6 8 1 3 2 6 9 11 14 14 15 18 17 17 17 16 18 11 13 15 13 13 9 6 12 12 7 8 5 5 9
Wind_Direction
85 38 13 329 310 359 19 17 19 16 12 359 356 349 351 329 316 318 2 113 93 80 62 54 43 35 29 22 14 9 8 7 7 5 2 2 356 350 316 299 290 281 270
89 45 38 26 26 37 18 16 15 9 356 346 331 347 347 329 336 339 346 17 176 126 101 88 68 41 23 15 10 3 359 359 358 357 355 354 353 351 354 340 299 285 275
50 50 39 23 28 22 22 15 357 330 332 337 340 345 332 341 345 331 328 309 174 156 128 94 74 50 29 17 4 357 348 345 345 345 345 346 347 345 341 344 348 314 283
85 93 53 43 18 344 317 330 305 8 346 338 325 317 330 360 339 314 318 341 333 315 147 130 108 68 54 19 357 344 336 331 336 335 335 339 338 337 335 333 332 332 330
64 25 81 50 10 327 351 6 13 349 336 329 320 327 11 346 340 331 328 311 308 32 49 155 6 22 54 9 359 338 329 337 330 323 328 330 330 329 329 326 324 324 324
54 22 59 74 254 326 7 0 339 311 301 338 331 318 335 355 321 322 359 13 360 355 3 10 27 20 5 355 352 341 341 323 320 331 330 330 325 322 320 318 316 315 316
63 40 33 6 355 2 354 340 317 332 334 335 326 329 326 327 333 337 356 349 344 342 347 23 33 20 9 4 356 339 324 319 337 327 325 323 322 319 315 312 310 308 307
32 20 13 352 357 344 327 331 343 327 318 354 341 328 321 319 301 346 338 343 341 344 357 344 354 13 30 24 352 320 329 340 329 327 323 322 319 317 313 309 306 304 301
23 6 3 357 343 318 328 330 323 310 1 349 326 329 332 326 332 342 332 321 336 335 331 342 334 3 2 2 323 323 328 353 335 327 323 320 316 314 313 306 303 300 298
22 7 6 14 360 346 332 322 329 345 343 336 340 359 349 344 332 322 298 342 336 337 332 344 353 1 343 320 292 292 256 14 354 333 324 317 313 311 313 305 298 298 296
24 17 14 8 342 330 315 315 314 32 38 27 3 347 337 313 318 325 324 334 332 323 321 332 349 337 328 329 329 324 350 356 339 327 318 311 306 310 312 305 296 297 297
5 13 17 337 333 322 327 25 56 49 32 12 344 320 307 331 327 327 318 318 311 307 312 331 332 328 342 335 329 323 342 327 321 318 316 311 302 308 309 306 301 299 299
351 6 346 339 331 326 47 34 33 6 11 317 307 313 323 331 328 326 325 313 303 310 308 313 328 332 320 318 307 323 321 321 326 323 315 305 300 304 305 305 300 303 305
330 329 344 328 311 39 357 29 2 311 278 264 262 271 319 306 302 319 309 312 309 302 313 312 294 309 300 297 332 337 332 323 322 313 312 302 294 291 299 302 300 304 308
310 342 337 317 314 272 263 263 265 264 289 311 26 291 264 295 310 323 319 315 310 313 303 303 304 295 317 333 337 328 325 318 315 307 301 293 286 281 292 296 299 305 312
317 313 316 314 321 317 233 251 281 300 305 276 288 305 17 355 332 292 327 310 303 295 296 305 309 328 359 336 328 324 317 313 307 300 294 295 270 280 301 306 302 307 310
302 316 314 314 309 306 311 326 316 308 281 298 279 350 318 273 300 327 310 303 305 309 309 311 315 334 332 325 319 310 303 301 294 299 300 275 264 287 299 301 303 308 312
304 312 307 300 289 297 359 337 326 322 356 14 349 350 349 342 326 330 332 339 340 335 320 314 320 320 319 309 302 306 302 302 297 296 301 333 292 268 273 286 297 313 311
320 305 302 288 298 343 324 282 276 350 347 279 306 355 324 323 326 356 357 340 332 325 329 320 314 317 312 323 315 307 306 302 307 302 304 304 299 297 283 268 289 333 343
317 301 286 284 315 307 315 324 9 14 343 327 322 316 314 350 14 343 332 326 318 323 320 313 310 311 313 313 309 312 309 310 315 312 317 327 329 304 284 270 242 352 355
280 268 274 278 263 295 292 58 23 358 339 326 319 328 339 0 286 131 288 290 312 303 304 301 302 304 302 306 307 318 320 321 308 298 342 325 329 320 294 313 180 22 359
255 269 286 290 283 216 150 131 104 358 310 308 328 331 338 319 120 224 309 322 278 284 288 284 285 289 297 312 321 315 322 325 319 323 330 314 325 326 306 265 145 78 353
253 260 264 280 278 138 153 140 129 338 298 300 323 337 329 321 37 16 352 335 314 302 299 299 298 288 296 299 316 313 309 303 301 302 306 306 306 306 288 318 185 171 41
263 264 265 270 256 145 161 151 151 264 279 311 340 316 311 353 68 20 340 319 309 310 306 318 340 323 308 307 295 293 293 296 291 288 289 293 305 294 299 303 215 191 120
284 269 269 239 127 150 162 159 157 300 303 317 314 305 297 298 100 2 335 313 309 310 316 334 321 312 306 297 289 281 278 285 290 294 293 301 308 294 291 287 278 226 164
312 295 303 83 95 153 168 166 169 336 302 301 304 308 353 86 20 325 311 305 303 304 324 314 310 304 305 304 304 312 276 270 280 292 279 326 314 335 309 279 313 294 179